Location: CCZU
(31.6840°N, 119.9550°E)
Time: 08:08:25
(UTC+08:00)

Tiangong - Visible Passes

Search period start: 07 December 2021 00:00
Search period end: 17 December 2021 00:00
Orbit: 379 x 384 km, 41.5° (Epoch: 06 December)

Date Brightness Start Highest point End Pass type
(mag) Time Alt. Az. Time Alt. Az. Time Alt. Az.
07 Dec 2.5 18:44:33 10° WSW 18:46:48 37° WNW 18:46:48 37° WNW visible
08 Dec 1.0 17:43:57 10° WSW 17:47:06 84° SSE 17:49:18 18° ENE visible
09 Dec 2.4 18:20:37 10° W 18:23:27 29° NNW 18:23:54 28° N visible
10 Dec 1.6 17:19:43 10° WSW 17:22:48 50° NNW 17:25:53 10° NE visible
10 Dec 4.0 18:57:57 10° NW 18:58:26 12° NW 18:58:26 12° NW visible
11 Dec 3.0 17:56:45 10° WNW 17:59:13 21° NNW 18:00:45 15° NNE visible
12 Dec 3.6 18:34:04 10° NW 18:35:11 13° NNW 18:35:11 13° NNW visible
13 Dec 3.2 17:32:52 10° NW 17:34:58 16° N 17:37:04 10° NNE visible
14 Dec 3.3 18:09:53 10° NNW 18:11:37 14° N 18:11:50 14° N visible
15 Dec 3.9 18:45:55 10° NNW 18:46:16 12° NNW 18:46:16 12° NNW visible
16 Dec 3.2 17:45:20 10° NNW 17:47:14 15° N 17:48:34 12° NE visible
